This is the latest recevied weather packets stored in our database for station/object W7JFO-3. If no packets are shown the sender has not sent any weather packets the latest 10 day(s).
| Time | Temp. | Humidity | Pressure | Rain* | Wind** | Luminosity | Snow |
|---|---|---|---|---|---|---|---|
| 1777702612 | 14.44° C | 37% | 1012.8 hPa | 0 mm | - | 0 W/m² | - |
| 1777701712 | 14.44° C | 37% | 1012.8 hPa | 0 mm | - | 0 W/m² | - |
| 1777700812 | 14.44° C | 38% | 1012.7 hPa | 0 mm | - | 0 W/m² | - |
| 1777699912 | 14.44° C | 38% | 1012.6 hPa | 0 mm | - | 0 W/m² | - |
| 1777699012 | 14.44° C | 39% | 1012.5 hPa | 0 mm | - | 0 W/m² | - |
| 1777698112 | 14.44° C | 39% | 1012.4 hPa | 0 mm | - | 0 W/m² | - |
| 1777697212 | 15° C | 37% | 1012.6 hPa | 0 mm | - | 0 W/m² | - |
| 1777696312 | 15° C | 37% | 1012.6 hPa | 0 mm | - | 0 W/m² | - |
| 1777695412 | 15° C | 37% | 1012.6 hPa | 0 mm | - | 0 W/m² | - |
| 1777694512 | 15° C | 36% | 1012.3 hPa | 0 mm | - | 0 W/m² | - |
| 1777693612 | 15° C | 35% | 1012.3 hPa | 0 mm | - | 0 W/m² | - |
| 1777692712 | 15.56° C | 34% | 1012.1 hPa | 0 mm | - | 0 W/m² | - |
| 1777691812 | 15.56° C | 34% | 1012.2 hPa | 0 mm | - | 0 W/m² | - |
| 1777690912 | 15.56° C | 33% | 1012.1 hPa | 0 mm | - | 0 W/m² | - |
| 1777690012 | 16.11° C | 32% | 1012 hPa | 0 mm | - | 7 W/m² | - |
| 1777689112 | 16.67° C | 31% | 1011.7 hPa | 0 mm | - | 18 W/m² | - |
| 1777688212 | 16.67° C | 29% | 1011.7 hPa | 0 mm | - | 32 W/m² | - |
| 1777687312 | 17.22° C | 28% | 1011.8 hPa | 0 mm | - | 46 W/m² | - |
| 1777686412 | 17.22° C | 27% | 1011.7 hPa | 0 mm | - | 60 W/m² | - |
| 1777685512 | 17.78° C | 27% | 1011.6 hPa | 0 mm | - | 83 W/m² | - |
| 1777684612 | 18.33° C | 25% | 1011.6 hPa | 0 mm | - | 139 W/m² | - |
| 1777683712 | 18.33° C | 26% | 1011.7 hPa | 0 mm | - | 149 W/m² | - |
| 1777682812 | 18.33° C | 25% | 1012 hPa | 0 mm | - | 163 W/m² | - |
| 1777681912 | 18.33° C | 25% | 1011.9 hPa | 0 mm | - | 183 W/m² | - |
| 1777681012 | 18.33° C | 25% | 1011.7 hPa | 0 mm | - | 165 W/m² | - |
* Rain latest hour (hover to see other rain measurements)
** Current wind speed in m/s (hover to see current wind gust speed)